This demonstration page uses our WeatherBlox Daily Observations layout. Learn more.

Hourly Observations for March 11, 2019

Temp ( °F °C ) Dew Point ( °F °C ) Humidity (%) Winds ( mph kmh ) Pressure ( in mb ) Visibility ( mi km ) Precip ( " mm )
12:15 am 00:15 Clear 54 12 36 2 51 51 NW 13 20 30.03 1017 10 16.09344 0 0
12:35 am 00:35 Clear 54 12 36 2 51 51 WNW 13 20 30.06 1018 10 16.09344 0 0
12:55 am 00:55 Clear 52 11 36 2 54 54 NW 9 15 30.06 1018 10 16.09344 0 0
1:15 am 01:15 Clear 54 12 34 1 47 47 NW 14 22 30.06 1018 10 16.09344 0 0
1:35 am 01:35 Clear 54 12 36 2 51 51 NW 17 28 30.06 1018 10 16.09344 0 0
1:55 am 01:55 Clear 54 12 36 2 51 51 NW 16 26 30.06 1018 10 16.09344 0 0
2:15 am 02:15 Clear 54 12 36 2 51 51 NW 16 26 30.06 1018 10 16.09344 0 0
2:35 am 02:35 Clear 54 12 37 3 54 54 NW 15 24 30.09 1019 10 16.09344 0 0
2:55 am 02:55 Clear 54 12 37 3 54 54 NNW 13 20 30.09 1019 10 16.09344 0 0
3:15 am 03:15 Clear 52 11 37 3 58 58 NW 16 26 30.09 1019 10 16.09344 0 0
3:35 am 03:35 Clear 52 11 37 3 58 58 NW 20 31 30.09 1019 10 16.09344 0 0
3:55 am 03:55 Clear 52 11 36 2 54 54 NNW 17 28 30.09 1019 10 16.09344 0 0
4:15 am 04:15 Clear 50 10 36 2 58 58 NW 8 13 30.12 1020 10 16.09344 0 0
4:35 am 04:35 Clear 48 9 36 2 62 62 NW 7 11 30.15 1021 10 16.09344 0 0
4:55 am 04:55 Clear 46 8 36 2 66 66 NW 13 20 30.15 1021 10 16.09344 0 0
5:15 am 05:15 Clear 48 9 34 1 58 58 NNW 17 28 30.15 1021 10 16.09344 0 0
5:35 am 05:35 Clear 50 10 34 1 54 54 NW 16 26 30.15 1021 10 16.09344 0 0
5:55 am 05:55 Clear 48 9 34 1 58 58 NW 15 24 30.15 1021 10 16.09344 0 0
6:15 am 06:15 Clear 48 9 32 0 54 54 WNW 12 19 30.15 1021 10 16.09344 0 0
6:35 am 06:35 Clear 46 8 32 0 57 57 WNW 6 9 30.18 1022 10 16.09344 0 0
6:55 am 06:55 Clear 46 8 32 0 57 57 NW 7 11 30.18 1022 10 16.09344 0 0
7:15 am 07:15 Clear 45 7 32 0 61 61 W 3 6 30.18 1022 10 16.09344 0 0
7:35 am 07:35 Sunny 45 7 32 0 61 61 Calm 30.18 1022 10 16.09344 0 0
7:55 am 07:55 Sunny 45 7 32 0 61 61 Calm 30.18 1022 10 16.09344 0 0
8:15 am 08:15 Sunny 45 7 32 0 61 61 Calm 30.18 1022 10 16.09344 0 0
8:35 am 08:35 Sunny 45 7 32 0 61 61 Calm 30.21 1023 10 16.09344 0 0
8:55 am 08:55 Sunny 46 8 32 0 57 57 Calm 30.21 1023 10 16.09344 0 0
9:15 am 09:15 Sunny 48 9 30 -1 50 50 NW 5 7 30.21 1023 10 16.09344 0 0
9:35 am 09:35 Sunny 50 10 28 -2 43 43 W 6 9 30.24 1024 10 16.09344 0 0
9:55 am 09:55 Sunny 50 10 28 -2 43 43 WNW 8 13 30.24 1024 10 16.09344 0 0
10:15 am 10:15 Sunny 50 10 28 -2 43 43 WNW 15 24 30.24 1024 10 16.09344 0 0
10:35 am 10:35 Sunny 52 11 28 -2 41 41 W 14 22 30.21 1023 10 16.09344 0 0
10:55 am 10:55 Sunny 54 12 28 -2 38 38 W 14 22 30.18 1022 10 16.09344 0 0
11:15 am 11:15 Sunny 54 12 28 -2 38 38 W 10 17 30.18 1022 10 16.09344 0 0
11:35 am 11:35 Sunny 54 12 28 -2 38 38 W 12 19 30.18 1022 10 16.09344 0 0
11:55 am 11:55 Sunny 54 12 28 -2 38 38 WNW 14 22 30.18 1022 10 16.09344 0 0
12:15 pm 12:15 Sunny 55 13 28 -2 36 36 NW 10 17 30.18 1022 10 16.09344 0 0
12:35 pm 12:35 Sunny 55 13 28 -2 36 36 W 10 17 30.15 1021 10 16.09344 0 0
12:55 pm 12:55 Sunny 57 14 28 -2 33 33 NW 12 19 30.15 1021 10 16.09344 0 0
1:15 pm 13:15 Sunny 57 14 27 -3 31 31 WNW 10 17 30.15 1021 10 16.09344 0 0
1:35 pm 13:35 Sunny 57 14 27 -3 31 31 W 9 15 30.15 1021 10 16.09344 0 0
1:55 pm 13:55 Sunny 59 15 27 -3 29 29 WNW 13 20 30.15 1021 10 16.09344 0 0
2:15 pm 14:15 Sunny 59 15 27 -3 29 29 W 12 19 30.12 1020 10 16.09344 0 0
2:35 pm 14:35 Sunny 59 15 25 -4 27 27 WSW 9 15 30.12 1020 10 16.09344 0 0
2:55 pm 14:55 Sunny 61 16 28 -2 29 29 WSW 12 19 30.12 1020 10 16.09344 0 0
3:15 pm 15:15 Sunny 61 16 27 -3 27 27 WSW 10 17 30.12 1020 10 16.09344 0 0
3:35 pm 15:35 Sunny 61 16 27 -3 27 27 WSW 9 15 30.12 1020 10 16.09344 0 0
3:55 pm 15:55 Sunny 61 16 27 -3 27 27 WNW 20 31 30.12 1020 10 16.09344 0 0
4:15 pm 16:15 Sunny 61 16 28 -2 29 29 NW 16 26 30.09 1019 10 16.09344 0 0
4:35 pm 16:35 Sunny 63 17 27 -3 25 25 WNW 17 28 30.09 1019 10 16.09344 0 0
4:55 pm 16:55 Sunny 63 17 28 -2 27 27 WNW 16 26 30.09 1019 10 16.09344 0 0
5:15 pm 17:15 Sunny 61 16 28 -2 29 29 NW 21 33 30.09 1019 10 16.09344 0 0
5:35 pm 17:35 Sunny 61 16 27 -3 27 27 WNW 16 26 30.09 1019 10 16.09344 0 0
5:55 pm 17:55 Sunny 61 16 28 -2 29 29 NW 16 26 30.09 1019 10 16.09344 0 0
6:15 pm 18:15 Sunny 59 15 27 -3 29 29 NW 16 26 30.09 1019 10 16.09344 0 0
6:35 pm 18:35 Sunny 59 15 27 -3 29 29 NW 12 19 30.09 1019 10 16.09344 0 0
6:55 pm 18:55 Sunny 57 14 27 -3 31 31 NW 20 31 30.12 1020 10 16.09344 0 0
7:15 pm 19:15 Clear 55 13 27 -3 33 33 NNW 16 26 30.12 1020 10 16.09344 0 0
7:35 pm 19:35 Clear 55 13 25 -4 31 31 NNW 16 26 30.12 1020 10 16.09344 0 0
7:55 pm 19:55 Clear 54 12 27 -3 35 35 NNW 15 24 30.15 1021 10 16.09344 0 0
8:15 pm 20:15 Clear 54 12 23 -5 30 30 NNW 24 39 30.15 1021 10 16.09344 0 0
8:35 pm 20:35 Mostly Cloudy 52 11 25 -4 35 35 NNW 20 31 30.15 1021 10 16.09344 0 0
8:55 pm 20:55 Mostly Cloudy 52 11 25 -4 35 35 NW 17 28 30.15 1021 10 16.09344 0 0
9:15 pm 21:15 Partly Cloudy 52 11 25 -4 35 35 NW 17 28 30.15 1021 10 16.09344 0 0
9:35 pm 21:35 Mostly Cloudy 52 11 23 -5 32 32 WNW 17 28 30.15 1021 10 16.09344 0 0
9:55 pm 21:55 Mostly Cloudy 52 11 23 -5 32 32 NW 16 26 30.15 1021 10 16.09344 0 0
10:15 pm 22:15 Partly Cloudy 50 10 25 -4 37 37 NW 13 20 30.18 1022 10 16.09344 0 0
10:35 pm 22:35 Partly Cloudy 50 10 27 -3 40 40 NW 21 33 30.18 1022 10 16.09344 0 0
10:55 pm 22:55 Partly Cloudy 50 10 27 -3 40 40 NW 18 30 30.21 1023 10 16.09344 0 0
11:15 pm 23:15 Clear 50 10 27 -3 40 40 NNW 13 20 30.21 1023 10 16.09344 0 0
11:35 pm 23:35 Clear 48 9 27 -3 43 43 NW 14 22 30.21 1023 10 16.09344 0 0
11:55 pm 23:55 Clear 46 8 27 -3 46 46 NW 13 20 30.21 1023 10 16.09344 0 0

Powered by AerisWeather